Satellite: NOAA-14 Catalog number: 23455 Epoch time: 09021.88339275 Element set: 0486 Inclination: 098.9244 deg RA of node: 100.0017 deg Eccentricity: 0.0008777 Arg of perigee: 242.4240 deg Mean anomaly: 117.6018 deg Mean motion: 14.13756474 rev/day Decay rate: -5.6e-07 rev/day^2 Epoch rev: 72525 Checksum: 301
Satellite: NOAA-15 Catalog number: 25338 Epoch time: 09021.90955664 Element set: 0784 Inclination: 098.5741 deg RA of node: 014.4116 deg Eccentricity: 0.0011444 Arg of perigee: 121.8532 deg Mean anomaly: 238.3756 deg Mean motion: 14.24742693 rev/day Decay rate: 4.8e-07 rev/day^2 Epoch rev: 55594 Checksum: 316
Satellite: RESURS Catalog number: 25394 Epoch time: 09021.67654882 Element set: 0139 Inclination: 098.3596 deg RA of node: 061.3475 deg Eccentricity: 0.0000983 Arg of perigee: 317.6998 deg Mean anomaly: 042.4106 deg Mean motion: 14.24179213 rev/day Decay rate: -1.9e-07 rev/day^2 Epoch rev: 54754 Checksum: 320
Satellite: FENGYUN1 Catalog number: 25730 Epoch time: 09022.88287167 Element set: 668 Inclination: 098.7435 deg RA of node: 357.4834 deg Eccentricity: 0.0022029 Arg of perigee: 269.0624 deg Mean anomaly: 090.8021 deg Mean motion: 14.07920503 rev/day Decay rate: 6.5e-07 rev/day^2 Epoch rev: 49987 Checksum: 321
Satellite: OKEAN-0 Catalog number: 25860 Epoch time: 09021.49925975 Element set: 0581 Inclination: 097.7712 deg RA of node: 008.6368 deg Eccentricity: 0.0000769 Arg of perigee: 039.8036 deg Mean anomaly: 320.3217 deg Mean motion: 14.73554870 rev/day Decay rate: 2.7e-07 rev/day^2 Epoch rev: 51154 Checksum: 310
Satellite: NOAA-16 Catalog number: 26536 Epoch time: 09021.94765215 Element set: 0260 Inclination: 099.1736 deg RA of node: 022.1027 deg Eccentricity: 0.0010224 Arg of perigee: 335.7948 deg Mean anomaly: 024.2715 deg Mean motion: 14.12508099 rev/day Decay rate: -1.48e-06 rev/day^2 Epoch rev: 42965 Checksum: 295
Satellite: NOAA-17 Catalog number: 27453 Epoch time: 09021.92564793 Element set: 0273 Inclination: 098.5071 deg RA of node: 085.8999 deg Eccentricity: 0.0011702 Arg of perigee: 185.9749 deg Mean anomaly: 174.1289 deg Mean motion: 14.24034806 rev/day Decay rate: 7.8e-07 rev/day^2 Epoch rev: 34193 Checksum: 340
Satellite: NOAA-18 Catalog number: 28654 Epoch time: 09021.92482227 Element set: 0758 Inclination: 098.8923 deg RA of node: 326.4141 deg Eccentricity: 0.0015158 Arg of perigee: 057.6048 deg Mean anomaly: 302.6598 deg Mean motion: 14.11226034 rev/day Decay rate: -1.33e-06 rev/day^2 Epoch rev: 18932 Checksum: 310
/EX SB KEPS @ AMSAT $ORB09022.M Orbital Elements 09022.MISC
HR AMSAT ORBITAL ELEMENTS FOR MANNED AND MISCELLANEOUS SATELLITES FROM WA5QGD FORT WORTH,TX January 22, 2009 Send Subscribe/unsubscribe to KEPS at http://www.amsat.org/mailman/listinfo/keps BID: ORB09022.M TO ALL RADIO AMATEURS BT
Satellite: HUBBLE Catalog number: 20580 Epoch time: 09022.18601970 Element set: 310 Inclination: 028.4706 deg RA of node: 334.7858 deg Eccentricity: 0.0003769 Arg of perigee: 187.4040 deg Mean anomaly: 172.6493 deg Mean motion: 15.00448878 rev/day Decay rate: 3.10e-06 rev/day^2 Epoch rev: 82790 Checksum: 294
Satellite: PO-34 Catalog number: 25520 Epoch time: 09022.69719188 Element set: 169 Inclination: 028.4596 deg RA of node: 149.0846 deg Eccentricity: 0.0005800 Arg of perigee: 160.0295 deg Mean anomaly: 200.0525 deg Mean motion: 15.17287130 rev/day Decay rate: 3.59e-06 rev/day^2 Epoch rev: 56653 Checksum: 302
Satellite: ISS Catalog number: 25544 Epoch time: 09021.90854292 Element set: 0117 Inclination: 051.6436 deg RA of node: 335.7578 deg Eccentricity: 0.0007718 Arg of perigee: 292.9948 deg Mean anomaly: 166.3593 deg Mean motion: 15.70502208 rev/day Decay rate: 1.1432e-04 rev/day^2 Epoch rev: 58294 Checksum: 318
Satellite: CO-58 Catalog number: 28895 Epoch time: 09022.67916017 Element set: 214 Inclination: 098.0803 deg RA of node: 277.2194 deg Eccentricity: 0.0019116 Arg of perigee: 084.3632 deg Mean anomaly: 275.9733 deg Mean motion: 14.59735353 rev/day Decay rate: 1.03e-06 rev/day^2 Epoch rev: 17250 Checksum: 316
Satellite: FALCON Catalog number: 30776 Epoch time: 09021.91161310 Element set: 0496 Inclination: 035.4344 deg RA of node: 266.8302 deg Eccentricity: 0.0000359 Arg of perigee: 009.0824 deg Mean anomaly: 350.9899 deg Mean motion: 15.03152552 rev/day Decay rate: 3.26e-06 rev/day^2 Epoch rev: 10307 Checksum: 269
Satellite: MAST Catalog number: 31126 Epoch time: 09022.71155682 Element set: 510 Inclination: 098.0110 deg RA of node: 084.0327 deg Eccentricity: 0.0095197 Arg of perigee: 011.9697 deg Mean anomaly: 348.3715 deg Mean motion: 14.53472573 rev/day Decay rate: -8.7e-07 rev/day^2 Epoch rev: 9390 Checksum: 293
Satellite: CAPE1 Catalog number: 31130 Epoch time: 09021.64142105 Element set: 0510 Inclination: 098.0133 deg RA of node: 081.5213 deg Eccentricity: 0.0103484 Arg of perigee: 019.6513 deg Mean anomaly: 340.8618 deg Mean motion: 14.52027282 rev/day Decay rate: 7.1e-07 rev/day^2 Epoch rev: 09342 Checksum: 238
Satellite: COMPASS Catalog number: 32787 Epoch time: 09021.81691518 Element set: 0267 Inclination: 097.9635 deg RA of node: 086.7510 deg Eccentricity: 0.0016529 Arg of perigee: 144.6613 deg Mean anomaly: 215.5691 deg Mean motion: 14.81536573 rev/day Decay rate: 3.87e-06 rev/day^2 Epoch rev: 03977 Checksum: 332
Satellite: AAUSAT2 Catalog number: 32788 Epoch time: 09022.67465421 Element set: 261 Inclination: 097.9618 deg RA of node: 087.6379 deg Eccentricity: 0.0015857 Arg of perigee: 142.7618 deg Mean anomaly: 217.4694 deg Mean motion: 14.81654031 rev/day Decay rate: 2.48e-06 rev/day^2 Epoch rev: 3990 Checksum: 332
Satellite: DO-64 Catalog number: 32789 Epoch time: 09021.94975661 Element set: 0276 Inclination: 097.9673 deg RA of node: 087.0006 deg Eccentricity: 0.0016323 Arg of perigee: 144.0132 deg Mean anomaly: 216.2183 deg Mean motion: 14.81595663 rev/day Decay rate: 5.54e-06 rev/day^2 Epoch rev: 03979 Checksum: 328
Satellite: CO-66 Catalog number: 32791 Epoch time: 09021.91107040 Element set: 0254 Inclination: 097.9660 deg RA of node: 086.8723 deg Eccentricity: 0.0016696 Arg of perigee: 142.6069 deg Mean anomaly: 217.6311 deg Mean motion: 14.81376666 rev/day Decay rate: -3.8e-07 rev/day^2 Epoch rev: 03975 Checksum: 322
Satellite: RS-30 Catalog number: 32953 Epoch time: 09022.42291743 Element set: 213 Inclination: 082.5037 deg RA of node: 347.2528 deg Eccentricity: 0.0019633 Arg of perigee: 133.1822 deg Mean anomaly: 227.0907 deg Mean motion: 12.42999448 rev/day Decay rate: 1.0e-07 rev/day^2 Epoch rev: 3028 Checksum: 278
/EX